Location: Indian Springs
(36.5700°N, 115.6700°W)
Time: 22:53:39
(UTC-08:00)

Amateur Radio Satellites - All Passes

Search period start: 16 January 2017 22:23
Search period end: 17 January 2017 22:23
Location: Indian Springs, 36.5700°N, 115.6700°W

Satellite Date Start Highest point End Downlink Frequencies (MHz)
Time Altitude Azimuth
JAS-2 16 Jan 22:23:46 22:30:45 55° 100° (E) 22:38:17 435.910
DX 1 16 Jan 22:26:23 22:28:46 15° 66° (ENE) 22:31:09 434.975-435.025
DUCHIFAT 1 16 Jan 22:29:10 22:31:20 14° 93° (E) 22:33:30 145.980
NANOSAT C BR1 16 Jan 22:32:02 22:34:45 17° 94° (E) 22:37:28 145.865
UKube-1 16 Jan 22:34:18 22:36:08 13° 65° (ENE) 22:37:59 .
CUBEBUG 1 16 Jan 22:35:23 22:39:46 63° 75° (ENE) 22:44:08 437.445
SPROUT 16 Jan 22:38:33 22:42:11 28° 71° (ENE) 22:45:50 437.525
UNISAT 6 16 Jan 22:39:11 22:43:01 30° 289° (WNW) 22:46:55 437.425
50 SAT 16 Jan 22:39:22 22:42:23 26° 72° (ENE) 22:45:27 437.505
AISAT 16 Jan 22:41:05 22:45:21 47° 73° (ENE) 22:49:37 437.250
ESTCUBE 1 16 Jan 22:45:40 22:50:06 56° 260° (W) 22:54:34 437.505/2401.250
TIGRISAT 16 Jan 22:54:11 22:57:36 22° 291° (WNW) 23:01:04 435.000
ANTELSAT 16 Jan 23:09:07 23:11:39 15° 293° (WNW) 23:14:14 437.575/2403.000
VELOX 1 16 Jan 23:14:31 23:18:58 75° 258° (WSW) 23:23:26 145.980
AO-85 16 Jan 23:18:18 23:22:09 55° 58° (ENE) 23:25:58 145.980
BUGSAT 1 16 Jan 23:19:50 23:22:36 18° 95° (E) 23:25:23 437.445
QB50P1 16 Jan 23:20:33 23:24:45 72° 102° (ESE) 23:28:57 145.935-145.965
POLYITAN 1 16 Jan 23:23:21 23:27:35 78° 102° (ESE) 23:31:49 437.675
QB50P2 16 Jan 23:24:27 23:28:42 87° 109° (ESE) 23:32:56 145.880/145.840
RS-15 16 Jan 23:29:53 23:41:29 71° 114° (ESE) 23:53:40 29.354- 29.394
YUBILEINY 16 Jan 23:41:44 23:46:53 16° 64° (ENE) 23:51:59 435.215
ISS 16 Jan 23:41:47 23:44:42 31° 326° (NW) 23:47:39 145.825
POPSAT HIP 1 16 Jan 23:47:08 23:51:15 55° 285° (WNW) 23:55:22 437.405
DX 1 17 Jan 00:00:20 00:04:32 46° 260° (W) 00:08:46 434.975-435.025
AIST 1 17 Jan 00:02:50 00:04:41 12° 72° (ENE) 00:06:31
DUCHIFAT 1 17 Jan 00:03:14 00:07:10 41° 287° (WNW) 00:11:06 145.980
Oscar 19 17 Jan 00:03:18 00:06:25 16° 93° (E) 00:09:30 437.125/150
NANOSAT C BR1 17 Jan 00:06:44 00:10:32 34° 288° (WNW) 00:14:20 145.865
UKube-1 17 Jan 00:07:27 00:11:41 53° 259° (W) 00:15:56 .
JAS-2 17 Jan 00:09:35 00:15:23 29° 294° (WNW) 00:21:36 435.910
50 SAT 17 Jan 00:13:32 00:15:37 15° 266° (W) 00:17:43 437.505
SPROUT 17 Jan 00:14:51 00:18:05 21° 265° (W) 00:21:18 437.525
AISAT 17 Jan 00:19:47 00:22:01 14° 267° (W) 00:24:15 437.250
TISAT 1 17 Jan 00:20:14 00:24:20 58° 75° (ENE) 00:28:27 437.305
Cosmos 2491 17 Jan 00:27:43 00:32:42 17° 79° (ENE) 00:37:40 435.465 / 435.565
BEESAT 17 Jan 00:42:59 00:46:29 21° 67° (ENE) 00:49:59 436.000
SWISSCUBE 17 Jan 00:43:53 00:47:38 24° 68° (ENE) 00:51:24 437.505
PCSat 17 Jan 00:48:03 00:53:24 66° 114° (ESE) 00:58:47 145.827
BUGSAT 1 17 Jan 00:54:30 00:57:59 29° 289° (WNW) 01:01:28 437.445
MOZHAYETS 4 17 Jan 01:15:36 01:17:11 12° 64° (ENE) 01:18:47
BEESAT 3 17 Jan 01:17:48 01:21:20 29° 54° (NE) 01:24:50 437.485
Gurwin Techsat 1B 17 Jan 01:23:17 01:28:29 53° 100° (E) 01:33:39 435.225
M-CUBED/EXP-1 PRIME 17 Jan 01:29:13 01:31:18 13° 62° (ENE) 01:33:20 437.505
Cosmos 2504 17 Jan 01:29:23 01:36:19 41° 76° (ENE) 01:42:58 435.465 / 435.565
YUBILEINY 17 Jan 01:36:02 01:44:55 89° 83° (E) 01:53:42 435.215
AIST 1 17 Jan 01:38:26 01:42:31 44° 267° (W) 01:46:33
Oscar 19 17 Jan 01:40:59 01:46:01 53° 287° (WNW) 01:51:00 437.125/150
ITUPSAT 1 17 Jan 01:41:48 01:46:33 85° 76° (ENE) 01:51:20 437.325
RS-15 17 Jan 01:44:13 01:54:58 37° 318° (NW) 02:06:09 29.354- 29.394
BEESAT 2 17 Jan 01:53:50 01:57:27 30° 54° (NE) 02:01:03 435.950
AUBIESAT-1 17 Jan 02:07:32 02:11:14 27° 67° (ENE) 02:14:45 437.475
AO-7 17 Jan 02:10:29 02:16:57 24° 95° (E) 02:23:22 29.400- 29.500
ITAMSAT 1 17 Jan 02:15:26 02:20:03 31° 97° (E) 02:24:39 435.822/435.867
Cosmos 2491 17 Jan 02:19:36 02:28:19 85° 277° (W) 02:37:05 435.465 / 435.565
BEESAT 17 Jan 02:19:37 02:23:58 36° 261° (W) 02:28:23 436.000
SWISSCUBE 17 Jan 02:21:02 02:25:14 31° 263° (W) 02:29:28 437.505
KKS-1 17 Jan 02:21:56 02:25:10 20° 68° (ENE) 02:28:25 437.445
PCSat 17 Jan 02:33:42 02:37:17 18° 311° (NW) 02:40:53 145.827
MOZHAYETS 4 17 Jan 02:49:16 02:53:46 63° 260° (W) 02:58:19
PHONESAT 2.4 17 Jan 02:54:11 02:56:26 51° 157° (SSE) 02:58:42 2401.200-2431.200
BEESAT 3 17 Jan 02:55:45 02:58:45 21° 249° (WSW) 03:01:44 437.485
M-CUBED/EXP-1 PRIME 17 Jan 03:00:52 03:05:21 57° 254° (WSW) 03:09:36 437.505
Gurwin Techsat 1B 17 Jan 03:04:29 03:07:57 18° 296° (WNW) 03:11:27 435.225
CUSAT 1 17 Jan 03:04:51 03:09:13 64° 95° (E) 03:15:03 437.405
DANDE 17 Jan 03:19:46 03:21:42 14° 83° (E) 03:23:54 436.750
Cosmos 2504 17 Jan 03:23:09 03:29:24 31° 274° (W) 03:35:28 435.465 / 435.565
CUBESAT XI-V 17 Jan 03:24:36 03:29:01 43° 73° (ENE) 03:33:28 437.345
STARS 17 Jan 03:24:55 03:29:04 44° 73° (ENE) 03:33:14 437.465
BEESAT 2 17 Jan 03:32:04 03:35:02 20° 249° (WSW) 03:37:59 435.950
YUBILEINY 17 Jan 03:35:41 03:40:23 16° 282° (WNW) 03:45:06 435.215
AUBIESAT-1 17 Jan 03:41:55 03:45:31 24° 258° (WSW) 03:49:00 437.475
ITAMSAT 1 17 Jan 03:55:00 03:59:23 28° 292° (WNW) 04:03:45 435.822/435.867
KKS-1 17 Jan 03:57:28 04:01:29 33° 262° (W) 04:05:31 437.445
AO-7 17 Jan 04:01:56 04:10:11 66° 292° (WNW) 04:18:24 29.400- 29.500
RS-15 17 Jan 04:05:44 04:12:50 16° 351° (N) 04:19:58 29.354- 29.394
Cosmos 2491 17 Jan 04:21:54 04:26:29 15° 296° (WNW) 04:31:05 435.465 / 435.565
BRITE-PL 17 Jan 04:23:58 04:28:48 50° 98° (E) 04:33:14 437.365/2234.400
PHONESAT 2.4 17 Jan 04:28:34 04:30:42 33° 352° (N) 04:32:52 2401.200-2431.200
ISS 17 Jan 04:35:40 04:37:39 15° 26° (NNE) 04:39:37 145.825
CUTE-I 17 Jan 04:40:20 04:41:41 11° 90° (E) 04:43:01 437.470
GOMX 1 17 Jan 04:47:47 04:51:46 31° 96° (E) 04:55:31 467.674
CUSAT 1 17 Jan 04:49:42 04:52:09 13° 299° (WNW) 04:54:52 437.405
AIST 2 17 Jan 04:54:59 04:59:09 54° 58° (ENE) 05:03:18 435.215
HORYU 2 17 Jan 05:00:24 05:04:46 54° 101° (E) 05:09:08 437.375
DANDE 17 Jan 05:01:04 05:03:57 24° 290° (WNW) 05:07:30 436.750
STARS 17 Jan 05:03:14 05:05:36 14° 267° (W) 05:07:56 437.465
CUBESAT XI-V 17 Jan 05:03:35 05:06:33 17° 267° (W) 05:09:32 437.345
STRAND 1 17 Jan 05:16:43 05:20:27 21° 66° (ENE) 05:24:12 437.568
Cubesat XI-IV 17 Jan 05:19:28 05:24:03 29° 96° (E) 05:28:37 437.490
O/OREOS (USA 219) 17 Jan 05:28:32 05:31:16 16° 100° (E) 05:33:59 437.305
NOAA 15 17 Jan 05:41:38 05:46:49 51° 100° (E) 05:51:57 137.62
DOVE 4 17 Jan 05:45:44 05:49:51 51° 99° (E) 05:53:51 437.250
HO-68 17 Jan 05:48:06 05:50:01 11° 89° (E) 05:51:56 435.675
Cosmos 2499 17 Jan 05:53:18 05:59:26 29° 73° (ENE) 06:05:24 435.465 / 435.565
AO-7 17 Jan 05:57:53 06:01:21 13° 311° (NW) 06:04:50 29.400- 29.500
PHONESAT 2.4 17 Jan 06:03:02 06:05:11 32° 8° (N) 06:07:21 2401.200-2431.200
BRITE-PL 17 Jan 06:03:49 06:06:43 16° 296° (WNW) 06:09:29 437.365/2234.400
CINEMA 3 17 Jan 06:05:16 06:08:03 17° 94° (E) 06:10:51 145.822/145.860
LilacSat-2 17 Jan 06:08:14 06:12:03 61° 285° (WNW) 06:15:52 437.200
ISS 17 Jan 06:11:13 06:14:27 75° 223° (SW) 06:17:41 145.825
CUTE-I 17 Jan 06:16:53 06:22:14 78° 284° (WNW) 06:27:33 437.470
GONETS M04 17 Jan 06:22:30 06:30:52 44° 76° (ENE) 06:39:10
RS-15 17 Jan 06:22:53 06:32:10 23° 28° (NNE) 06:41:16 29.354- 29.394
GOMX 1 17 Jan 06:26:23 06:29:36 20° 293° (WNW) 06:32:42 467.674
NOAA 18 17 Jan 06:32:58 06:38:26 78° 104° (ESE) 06:43:52 137.9125
AIST 2 17 Jan 06:35:28 06:37:07 12° 252° (WSW) 06:38:46 435.215
HORYU 2 17 Jan 06:38:48 06:40:49 13° 295° (WNW) 06:42:51 437.375
CUTE 1.7 + AOD 2 17 Jan 06:51:47 06:55:42 33° 97° (E) 06:59:36 437.475
STRAND 1 17 Jan 06:54:32 06:59:18 41° 261° (W) 07:04:07 437.568
Cubesat XI-IV 17 Jan 06:59:24 07:04:03 32° 291° (WNW) 07:08:43 437.490
O/OREOS (USA 219) 17 Jan 07:06:04 07:10:17 39° 295° (WNW) 07:14:30 437.305
PRISM 17 Jan 07:08:23 07:10:14 13° 65° (ENE) 07:12:04 437.425
CANX-2 17 Jan 07:19:56 07:24:15 89° 98° (E) 07:28:32 2200.000
NOAA 15 17 Jan 07:22:32 07:26:09 19° 296° (WNW) 07:29:45 137.62
CUBEBUG 2 17 Jan 07:23:57 07:27:49 31° 97° (E) 07:31:46 437.445
DOVE 4 17 Jan 07:25:44 07:27:02 11° 295° (WNW) 07:28:20 437.250
HO-68 17 Jan 07:31:26 07:38:39 81° 105° (ESE) 07:45:49 435.675
Oscar 11 17 Jan 07:36:09 07:38:05 13° 92° (E) 07:40:02 145.826/435.025
PHONESAT 2.4 17 Jan 07:37:10 07:39:27 55° 204° (SSW) 07:41:45 2401.200-2431.200
SEEDS 17 Jan 07:38:48 07:43:04 82° 100° (E) 07:47:19 437.485
CINEMA 3 17 Jan 07:41:31 07:45:15 32° 288° (WNW) 07:49:01 145.822/145.860
Cosmos 2499 17 Jan 07:46:02 07:52:37 41° 271° (W) 07:59:06 435.465 / 435.565
SO-50 17 Jan 07:46:27 07:51:00 48° 116° (ESE) 07:55:31 436.795
COMPASS 1 17 Jan 07:51:18 07:55:32 74° 102° (ESE) 07:59:42 437.405
UWE-3 17 Jan 07:59:52 08:04:06 52° 100° (E) 08:08:27 435.000/436.395/437.385
UNISAT 6 17 Jan 08:00:44 08:02:58 14° 66° (ENE) 08:05:10 437.425
FUNcube-1 17 Jan 08:06:13 08:10:10 32° 97° (E) 08:14:08 145.935
AAUSAT CUBESAT 2 17 Jan 08:06:22 08:10:35 85° 104° (ESE) 08:14:45 437.432
TIGRISAT 17 Jan 08:14:25 08:17:22 19° 68° (ENE) 08:20:18 435.000
NOAA 18 17 Jan 08:15:58 08:18:22 13° 299° (WNW) 08:20:45 137.9125
GONETS M04 17 Jan 08:19:38 08:27:26 37° 274° (W) 08:35:15
DELFI C3 17 Jan 08:22:15 08:24:03 13° 92° (E) 08:25:49 145.870
ZACube-1 17 Jan 08:26:51 08:31:11 63° 101° (E) 08:35:36 437.345
ANTELSAT 17 Jan 08:27:54 08:31:33 28° 71° (ENE) 08:35:11 437.575/2403.000
CUTE 1.7 + AOD 2 17 Jan 08:28:19 08:31:16 18° 292° (WNW) 08:34:12 437.475
RS-15 17 Jan 08:35:19 08:47:39 68° 56° (NE) 08:59:26 29.354- 29.394
JAS-2 17 Jan 08:37:35 08:40:08 14° 60° (ENE) 08:42:44 435.910
PRISM 17 Jan 08:41:02 08:45:03 48° 260° (W) 08:49:06 437.425
CUBEBUG 2 17 Jan 09:01:07 09:04:13 20° 291° (WNW) 09:07:24 437.445
HUMSAT D 17 Jan 09:10:11 09:13:50 27° 96° (E) 09:17:30 437.325/437.525
Oscar 11 17 Jan 09:10:15 09:14:27 48° 286° (WNW) 09:18:38 145.826/435.025
HO-68 17 Jan 09:20:56 09:25:30 18° 302° (WNW) 09:30:03 435.675
SO-50 17 Jan 09:28:17 09:31:42 20° 312° (NW) 09:35:06 436.795
UNISAT 6 17 Jan 09:35:11 09:39:16 44° 261° (W) 09:43:22 437.425
UWE-3 17 Jan 09:38:10 09:40:08 13° 294° (WNW) 09:42:06 435.000/436.395/437.385
PCSat 17 Jan 09:38:39 09:43:30 32° 55° (NE) 09:48:18 145.827
FUNcube-1 17 Jan 09:43:00 09:46:09 20° 291° (WNW) 09:49:22 145.935
TIGRISAT 17 Jan 09:49:59 09:53:49 32° 262° (W) 09:57:38 435.000
DELFI C3 17 Jan 09:55:15 09:59:00 40° 287° (WNW) 10:02:43 145.870
ANTELSAT 17 Jan 10:05:01 10:08:14 21° 265° (W) 10:11:28 437.575/2403.000
BY70-1 17 Jan 10:05:23 10:08:13 24° 96° (E) 10:10:55 436.1900
ZACube-1 17 Jan 10:05:50 10:06:56 11° 295° (WNW) 10:08:02 437.345
QB50P1 17 Jan 10:10:28 10:14:19 37° 72° (ENE) 10:18:12 145.935-145.965
POLYITAN 1 17 Jan 10:13:24 10:17:19 40° 73° (ENE) 10:21:15 437.675
QB50P2 17 Jan 10:14:25 10:18:25 45° 73° (ENE) 10:22:26 145.880/145.840
JAS-2 17 Jan 10:19:16 10:24:26 68° 258° (WSW) 10:30:00 435.910
CUBEBUG 1 17 Jan 10:28:03 10:30:16 14° 93° (E) 10:32:27 437.445
AISAT 17 Jan 10:36:37 10:37:13 10° 91° (E) 10:37:49 437.250
POPSAT HIP 1 17 Jan 10:36:39 10:40:50 77° 76° (ENE) 10:45:02 437.405
ESTCUBE 1 17 Jan 10:40:40 10:44:50 35° 98° (E) 10:48:59 437.505/2401.250
HUMSAT D 17 Jan 10:45:58 10:49:16 22° 291° (WNW) 10:52:35 437.325/437.525
RS-15 17 Jan 10:48:58 10:59:11 33° 256° (WSW) 11:09:05 29.354- 29.394
DUCHIFAT 1 17 Jan 10:51:56 10:56:07 81° 258° (WSW) 11:00:18 145.980
NANOSAT C BR1 17 Jan 10:55:38 10:59:48 66° 259° (W) 11:03:58 145.865
VELOX 1 17 Jan 11:07:34 11:11:08 24° 96° (E) 11:14:40 145.980
Oscar 19 17 Jan 11:17:43 11:21:21 20° 65° (ENE) 11:25:00 437.125/150
PCSat 17 Jan 11:22:03 11:26:49 32° 251° (WSW) 11:31:34 145.827
BY70-1 17 Jan 11:36:23 11:38:20 15° 292° (WNW) 11:40:13 436.1900
50 SAT 17 Jan 11:39:52 11:43:16 41° 99° (E) 11:46:37 437.505
BUGSAT 1 17 Jan 11:40:54 11:44:58 61° 259° (W) 11:48:59 437.445
QB50P1 17 Jan 11:47:42 11:50:12 15° 267° (W) 11:52:41 145.935-145.965
DX 1 17 Jan 11:50:55 11:54:53 34° 98° (E) 11:58:48 434.975-435.025
POLYITAN 1 17 Jan 11:51:03 11:53:15 14° 267° (W) 11:55:28 437.675
QB50P2 17 Jan 11:52:34 11:54:24 13° 268° (W) 11:56:16 145.880/145.840
UKube-1 17 Jan 11:57:07 12:00:52 29° 97° (E) 12:04:35 .
SPROUT 17 Jan 12:01:40 12:05:55 78° 102° (ESE) 12:10:10 437.525
CUBEBUG 1 17 Jan 12:02:37 12:06:44 43° 287° (WNW) 12:10:48 437.445
TISAT 1 17 Jan 12:09:21 12:09:57 10° 92° (E) 12:10:33 437.305
AISAT 17 Jan 12:09:41 12:14:01 59° 286° (WNW) 12:18:19 437.250
ESTCUBE 1 17 Jan 12:18:08 12:21:21 19° 293° (WNW) 12:24:33 437.505/2401.250
Cosmos 2491 17 Jan 12:33:14 12:41:31 43° 76° (ENE) 12:49:45 435.465 / 435.565
YUBILEINY 17 Jan 12:40:22 12:46:16 20° 80° (E) 12:52:10 435.215
Gurwin Techsat 1B 17 Jan 12:41:49 12:47:04 67° 74° (ENE) 12:52:20 435.225
VELOX 1 17 Jan 12:43:51 12:47:30 26° 291° (WNW) 12:51:09 145.980
Oscar 19 17 Jan 12:55:18 13:00:16 47° 260° (W) 13:05:17 437.125/150
AO-7 17 Jan 13:07:01 13:13:51 29° 59° (ENE) 13:20:42 29.400- 29.500
50 SAT 17 Jan 13:15:48 13:16:02 10° 294° (WNW) 13:16:17 437.505
DX 1 17 Jan 13:27:48 13:30:47 18° 293° (WNW) 13:33:46 434.975-435.025
AO-85 17 Jan 13:29:49 13:34:15 36° 114° (ESE) 13:38:24 145.980
ITAMSAT 1 17 Jan 13:30:59 13:35:43 38° 70° (ENE) 13:40:28 435.822/435.867
UKube-1 17 Jan 13:33:27 13:36:43 21° 292° (WNW) 13:39:58 .
CUSAT 1 17 Jan 13:39:13 13:46:55 49° 76° (ENE) 13:54:10 437.405
TISAT 1 17 Jan 13:41:48 13:45:52 53° 286° (WNW) 13:49:55 437.305
ITUPSAT 1 17 Jan 13:45:12 13:49:14 26° 96° (E) 13:53:15 437.325
DANDE 17 Jan 13:55:36 14:01:49 26° 71° (ENE) 14:08:28 436.750
Cosmos 2504 17 Jan 14:03:20 14:11:20 41° 88° (E) 14:18:58 435.465 / 435.565
AIST 1 17 Jan 14:04:28 14:08:49 69° 278° (W) 14:13:12
BEESAT 17 Jan 14:21:34 14:26:20 67° 102° (ESE) 14:31:06 436.000
SWISSCUBE 17 Jan 14:22:49 14:27:38 78° 103° (ESE) 14:32:25 437.505
Gurwin Techsat 1B 17 Jan 14:25:03 14:27:25 13° 269° (W) 14:29:49 435.225
Cosmos 2491 17 Jan 14:30:20 14:38:07 37° 274° (W) 14:45:56 435.465 / 435.565
YUBILEINY 17 Jan 14:33:14 14:42:01 75° 278° (W) 14:50:54 435.215
MOZHAYETS 4 17 Jan 14:46:45 14:51:01 35° 98° (E) 14:55:16
AO-7 17 Jan 14:57:50 15:06:02 61° 256° (WSW) 15:14:20 29.400- 29.500
JUGNU 17 Jan 15:08:32 15:11:12 13° 172° (S) 15:13:52 437.505
AO-85 17 Jan 15:10:57 15:14:42 23° 308° (NW) 15:18:16 145.980
ITAMSAT 1 17 Jan 15:11:15 15:15:15 22° 265° (W) 15:19:16 435.822/435.867
CUSAT 1 17 Jan 15:21:37 15:28:30 33° 273° (W) 15:35:01 437.405
AUBIESAT-1 17 Jan 15:22:42 15:25:17 20° 101° (E) 15:27:48 437.475
ITUPSAT 1 17 Jan 15:22:52 15:26:59 29° 291° (WNW) 15:31:05 437.325
CUBESAT XI-V 17 Jan 15:25:23 15:27:29 13° 91° (E) 15:29:35 437.345
BRITE-PL 17 Jan 15:30:41 15:36:06 48° 73° (ENE) 15:41:32 437.365/2234.400
DANDE 17 Jan 15:37:15 15:44:52 66° 265° (W) 15:53:08 436.750
O/OREOS (USA 219) 17 Jan 15:39:34 15:43:05 22° 61° (ENE) 15:46:35 437.305
KKS-1 17 Jan 15:50:14 15:54:35 54° 100° (E) 15:58:54 437.445
GOMX 1 17 Jan 15:52:17 15:57:03 32° 71° (ENE) 16:01:42 467.674
HORYU 2 17 Jan 15:56:00 16:00:01 36° 71° (ENE) 16:04:04 437.375
Cosmos 2504 17 Jan 15:56:32 16:04:36 40° 284° (WNW) 16:12:21 435.465 / 435.565
CUTE-I 17 Jan 15:58:57 16:02:04 16° 63° (ENE) 16:05:12 437.470
BEESAT 17 Jan 16:01:39 16:03:31 12° 297° (WNW) 16:05:21 436.000
SWISSCUBE 17 Jan 16:03:51 16:04:43 10° 298° (WNW) 16:05:35 437.505
M-CUBED/EXP-1 PRIME 17 Jan 16:17:01 16:20:15 43° 291° (WNW) 16:23:22 437.505
NOAA 18 17 Jan 16:19:26 16:22:19 15° 61° (ENE) 16:25:13 137.9125
SO-50 17 Jan 16:20:37 16:24:11 23° 50° (NE) 16:27:44 436.795
MOZHAYETS 4 17 Jan 16:24:32 16:27:55 20° 292° (WNW) 16:31:17
YUBILEINY 17 Jan 16:36:47 16:40:24 13° 298° (WNW) 16:44:03 435.215
Cubesat XI-IV 17 Jan 16:39:00 16:43:51 38° 70° (ENE) 16:48:43 437.490
BEESAT 3 17 Jan 16:42:19 16:46:10 69° 301° (WNW) 16:50:06 437.485
LilacSat-2 17 Jan 16:47:34 16:51:07 41° 74° (ENE) 16:54:41 437.200
DOVE 4 17 Jan 16:47:49 16:52:38 43° 73° (ENE) 16:57:14 437.250
STARS 17 Jan 16:52:31 16:56:51 66° 285° (WNW) 17:01:10 437.465
JUGNU 17 Jan 16:56:07 16:59:24 15° 182° (S) 17:02:41 437.505
AUBIESAT-1 17 Jan 16:57:20 16:59:35 17° 296° (WNW) 17:01:48 437.475
NOAA 15 17 Jan 16:59:07 17:04:19 64° 74° (ENE) 17:09:35 137.62
CUBESAT XI-V 17 Jan 17:00:34 17:05:09 54° 286° (WNW) 17:09:42 437.345
CINEMA 3 17 Jan 17:05:35 17:07:42 13° 67° (ENE) 17:09:47 145.822/145.860
BRITE-PL 17 Jan 17:10:29 17:14:43 21° 267° (W) 17:18:59 437.365/2234.400
O/OREOS (USA 219) 17 Jan 17:18:31 17:22:29 31° 256° (WSW) 17:26:27 437.305
BEESAT 2 17 Jan 17:20:01 17:23:54 63° 301° (WNW) 17:27:53 435.950
DANDE 17 Jan 17:24:39 17:26:29 11° 279° (W) 17:28:20 436.750
KKS-1 17 Jan 17:28:41 17:30:39 13° 295° (WNW) 17:32:36 437.445
GOMX 1 17 Jan 17:30:16 17:35:00 30° 264° (W) 17:39:39 467.674
HORYU 2 17 Jan 17:33:44 17:36:39 17° 266° (W) 17:39:35 437.375
CUTE-I 17 Jan 17:36:20 17:41:34 60° 259° (WSW) 17:46:49 437.470
CUTE 1.7 + AOD 2 17 Jan 17:42:47 17:45:39 18° 68° (ENE) 17:48:34 437.475
NOAA 18 17 Jan 17:56:50 18:02:20 71° 257° (WSW) 18:07:50 137.9125
HO-68 17 Jan 17:57:08 18:03:54 47° 68° (ENE) 18:10:43 435.675
SO-50 17 Jan 18:00:38 18:04:43 35° 246° (WSW) 18:08:46 436.795
CANX-2 17 Jan 18:10:01 18:14:01 43° 74° (ENE) 18:18:04 2200.000
SRMSAT 17 Jan 18:19:32 18:22:45 15° 176° (S) 18:25:59 437.500
Cubesat XI-IV 17 Jan 18:19:45 18:23:58 24° 265° (W) 18:28:12 437.490
CUBEBUG 2 17 Jan 18:20:33 18:23:31 19° 69° (ENE) 18:26:29 437.445
LilacSat-2 17 Jan 18:24:48 18:25:36 11° 268° (W) 18:26:24 437.200
Cosmos 2499 17 Jan 18:26:25 18:33:27 29° 86° (E) 18:40:06 435.465 / 435.565
DOVE 4 17 Jan 18:26:51 18:30:24 19° 266° (W) 18:33:51 437.250
SEEDS 17 Jan 18:27:51 18:31:45 39° 73° (ENE) 18:35:41 437.485
COMPASS 1 17 Jan 18:39:27 18:43:13 34° 72° (ENE) 18:47:02 437.405
CINEMA 3 17 Jan 18:40:01 18:44:26 50° 260° (W) 18:48:42 145.822/145.860
NOAA 15 17 Jan 18:41:54 18:44:30 14° 268° (W) 18:47:06 137.62
JUGNU 17 Jan 18:46:09 18:47:35 11° 192° (SSW) 18:49:03 437.505
AIST 2 17 Jan 18:50:58 18:53:57 20° 110° (ESE) 18:56:59 435.215
AAUSAT CUBESAT 2 17 Jan 18:53:53 18:57:44 38° 73° (ENE) 19:01:37 437.432
UWE-3 17 Jan 18:54:53 18:58:28 29° 71° (ENE) 19:02:03 435.000/436.395/437.385
FUNcube-1 17 Jan 19:00:20 19:03:07 18° 68° (ENE) 19:05:54 145.935
STRAND 1 17 Jan 19:07:00 19:12:09 82° 102° (ESE) 19:17:18 437.568
CUTE 1.7 + AOD 2 17 Jan 19:17:24 19:21:13 33° 263° (W) 19:25:05 437.475
GONETS M04 17 Jan 19:20:10 19:28:31 55° 90° (E) 19:36:57
ZACube-1 17 Jan 19:20:31 19:24:14 33° 72° (ENE) 19:27:58 437.345
HO-68 17 Jan 19:45:35 19:51:44 30° 264° (W) 19:57:55 435.675
CANX-2 17 Jan 19:48:01 19:50:03 13° 268° (W) 19:52:07 2200.000
CUBEBUG 2 17 Jan 19:56:16 19:59:57 29° 263° (W) 20:03:36 437.445
HUMSAT D 17 Jan 20:00:22 20:02:28 14° 67° (ENE) 20:04:35 437.325/437.525
Oscar 11 17 Jan 20:01:57 20:06:15 89° 253° (WSW) 20:10:36 145.826/435.025
SEEDS 17 Jan 20:05:13 20:07:34 15° 267° (W) 20:09:57 437.485
SRMSAT 17 Jan 20:08:04 20:11:08 14° 186° (S) 20:14:10 437.500
COMPASS 1 17 Jan 20:16:10 20:18:50 16° 267° (W) 20:21:31 437.405
Cosmos 2499 17 Jan 20:17:50 20:26:10 53° 281° (W) 20:33:59 435.465 / 435.565
PRISM 17 Jan 20:25:10 20:28:37 25° 97° (E) 20:32:01 437.425
AIST 2 17 Jan 20:28:29 20:32:11 32° 306° (NW) 20:35:57 435.215
AAUSAT CUBESAT 2 17 Jan 20:30:59 20:33:19 15° 267° (W) 20:35:41 437.432
UWE-3 17 Jan 20:31:59 20:34:56 19° 266° (W) 20:37:53 435.000/436.395/437.385
FUNcube-1 17 Jan 20:35:26 20:39:06 31° 263° (W) 20:42:48 145.935
DELFI C3 17 Jan 20:37:37 20:41:36 77° 77° (ENE) 20:45:38 145.870
STRAND 1 17 Jan 20:49:07 20:50:36 11° 299° (WNW) 20:52:05 437.568
ZACube-1 17 Jan 20:58:01 21:00:36 16° 267° (W) 21:03:12 437.345
ISS 17 Jan 21:15:26 21:16:22 11° 127° (SE) 21:17:17 145.825
GONETS M04 17 Jan 21:18:24 21:25:41 29° 289° (WNW) 21:33:03
UNISAT 6 17 Jan 21:28:42 21:32:55 42° 99° (E) 21:37:12 437.425
JAS-2 17 Jan 21:30:07 21:35:30 22° 93° (E) 21:41:07 435.910
HUMSAT D 17 Jan 21:33:50 21:37:41 41° 262° (W) 21:41:35 437.325/437.525
ESTCUBE 1 17 Jan 21:37:59 21:41:40 25° 69° (ENE) 21:45:22 437.505/2401.250
TIGRISAT 17 Jan 21:42:53 21:47:15 58° 101° (E) 21:51:41 435.000
BY70-1 17 Jan 21:47:42 21:50:30 62° 76° (ENE) 21:53:34 436.1900
ANTELSAT 17 Jan 21:57:18 22:01:44 89° 283° (WNW) 22:06:16 437.575/2403.000
PRISM 17 Jan 22:00:35 22:03:44 22° 291° (WNW) 22:06:52 437.425
VELOX 1 17 Jan 22:03:06 22:05:57 17° 67° (ENE) 22:08:49 145.980
AO-85 17 Jan 22:04:39 22:06:47 14° 47° (NE) 22:08:54 145.980
50 SAT 17 Jan 22:13:51 22:15:23 12° 67° (ENE) 22:16:55 437.505
